Regional Weather Roundup
Issued by NWS

Home | Current Version | Previous Version | Graphics & Text | Print | Product List | Glossary On
Versions: 1 2 3 4 5 6 7 8 9 10 11 12 13 14 15 16 17 18 19 20 21 22 23 24 25 26 27 28 29 30 31 32 33 34 35 36 37 38 39 40 41 42 43 44 45 46 47 48 49 50
000
ASUS45 KABQ 251401
RWRNM
NEW MEXICO REGIONAL WEATHER ROUNDUP
NATIONAL WEATHER SERVICE ALBUQUERQUE NM
800 AM MDT THU MAY 25 2017

NOTE: "FAIR" MEANS FEW OR NO CLOUDS BELOW 12,000 FEET AGL WITH NO
       SIGNIFICANT WEATHER OR OBSTRUCTIONS TO VISION.

      THIS PRODUCT IS RELEASED AS TWO VERSIONS.  ONE VERSION NEAR
      THE TOP OF THE HOUR CONTAINING PRELIMINARY DATA FROM ALBUQUERQUE
      AND OTHER STATIONS.  A FINAL VERSION WITH ADDITIONAL DATA IS
      ISSUED ABOUT 10 MINUTES AFTER THE HOUR.

NMZ501-503-504-510>518-251500-
NORTHWEST PLATEAU/NORTHCENTRAL MOUNTAINS

CITY           SKY/WX    TMP DP  RH WIND       PRES   REMARKS
FARMINGTON     FAIR      65  22  19 SW9       29.78R
LOS ALAMOS     FAIR      65  15  14 W28G39    29.89R
SANTA FE       FAIR      67  26  21 SW12      29.87S
TAOS           FAIR      61  28  29 S9        29.91S

$$
NMZ402-403-502-505>509-251500-
WESTCENTRAL MOUNTAINS/SOUTHWEST MOUNTAINS

CITY           SKY/WX    TMP DP  RH WIND       PRES   REMARKS
GALLUP         FAIR      62  29  28 SW8       29.92S
SILVER CITY    FAIR      69  24  18 NW8       29.95R

$$
NMZ407-409-411-412-251500-
SOUTHERN DESERTS

CITY           SKY/WX    TMP DP  RH WIND       PRES   REMARKS
DEMING         FAIR      68  25  19 W6        29.89S
LAS CRUCES     FAIR      71  22  16 W13       29.88S
HOLLOMAN AFB   FAIR      81  20  10 W14G20    29.86R
T OR C         FAIR      74  22  14 SW13      29.85F

$$
NMZ519>523-251500-
CENTRAL VALLEYS/CENTRAL HIGHLANDS

CITY           SKY/WX    TMP DP  RH WIND       PRES   REMARKS
ALBUQUERQUE    PTSUNNY   70  24  17 SW15G24   29.87R
DOUBLE EAGLE   PTSUNNY   66  28  24 SW15      29.88R
MORIARTY ARPT  FAIR      72  24  16 W24G32    29.89R
CLINES CORNERS FAIR      65  24  21 W18G25    29.93R
BELEN          FAIR      68  23  17 SW9       29.87R
SOCORRO        NOT AVBL

$$
NMZ524>526-539-540-251500-
SOUTHCENTRAL MOUNTAINS

CITY           SKY/WX    TMP DP  RH WIND       PRES   REMARKS
RUIDOSO        NOT AVBL

$$
NMZ527>531-251500-
NORTHEAST HIGHLANDS/NORTHEAST PLAINS

CITY           SKY/WX    TMP DP  RH WIND       PRES   REMARKS
LAS VEGAS      FAIR      67  25  20 W17       29.86F
RATON          FAIR      70  28  21 W10       29.79S
CLAYTON        FAIR      71  38  29 W13       29.68R

$$
NMZ532>537-251500-
EASTCENTRAL PLAINS

CITY           SKY/WX    TMP DP  RH WIND       PRES   REMARKS
SANTA ROSA     FAIR      72  29  20 W10       29.77R
TUCUMCARI      FAIR      71  38  29 W10       29.67R
CANNON AFB     FAIR      71  30  22 W15       29.75R
CLOVIS AIRPORT FAIR      72  34  25 W20G25    29.73R

$$
NMZ028-029-538-251500-
SOUTHEAST PLAINS

CITY           SKY/WX    TMP DP  RH WIND       PRES   REMARKS
ROSWELL        FAIR      79  27  14 SW7       29.73S
ARTESIA        FAIR      77  27  15 VRB5      29.76R
CARLSBAD       FAIR      82  23  11 W12G18    29.73R
HOBBS          SUNNY     73  32  21 SW9       29.76S


$$




USA.gov is the U.S. government's official web portal to all federal, state and local government web resources and services.